FENGYUN 1C DEB, 33688

Orbit data source: Space-Track

FENGYUN 1C DEB, 33688 is space debris in SSO originally from a launch on Mon, 10 May 1999 UTC launched from the Taiyaun Space Center, China (TSC). Fengyun 1C debris stems from the Chinese weather satellite Fengyun-1C, which was intentionally destroyed by a Chinese anti-satellite missile in 2007. This event dramatically increased the amount of space debris, with thousands of trackable fragments posing hazards to satellites and human spaceflight. The Fengyun 1C debris cloud has become a focal point in discussions about space sustainability and the need for international regulations to prevent the creation of new debris.

Loading next visibility...
Identifier
33688, 1999-025DFZ
Orbit
SSO
Country
Flag of CNCN / PRC
Related business
Manufacturer
Unknown
Mission
Spacecraft
Bus & Motor
Unknown
Mass
Unknown
Launch date (UTC)
1999-05-10 (27 years ago)
Launch vehicle
Unknown
Launch site
Taiyaun Space Center, China (TSC)
Object type
Payload
Rocket body
Debris
Shape & HBR
Unknown shape, 0.1 m
Radar Cross Section
Small (<0.1 m²)

Expand to show TLE details & history
Last TLE update: 2 days ago

TLE from 2 days ago
0 FENGYUN 1C DEB
1 33688U 99025DFZ 26144.29433483  .00007286  00000-0  19033-2 0  9997
2 33688  99.3534 267.6305 0051936 144.2240 216.2448 14.48942099938336
Epoch: 2026-05-24T07:03Z
TLE epoch observation values (Epoch: 2026-05-24T07:03:50.529Z)
Latitude
0.00002°
Longitude
-80.22858°
Altitude
761.881 km
Speed
7.458 km/s
True Right ascension
17h 50m 31s
True Declination
0° 00' 00"
Sunlit
Object was in full shadow at epoch
Visualization orbit readout
Latitude
Unknown
Longitude
Unknown
Altitude
Unknown
Speed
Unknown
Apparent Right ascension
Unknown
Apparent Declination
Unknown
Sunlit
N/A
Visualization observer readout
Local Sidereal Time
19:47:25
Azimuth
Unknown
Elevation
Unknown
Doppler factor
Unknown
Orbital elements
Apogee altitude
763.155 km
Perigee altitude
689.361 km
Semi-major axis
7,104.395 km
Eccentricity
0.00519
Inclination
99.3534°
RAAN
267.6305°
Arg. of periapsis
144.224°
True anomaly
215.89477°
Mean anomaly
216.2448°
Eccentric anomaly
216.0696°
Mean motion
3.62454 °/min
Orbital period
99.32 mins
BSTAR
0.0019033
Loading maneuver chart data...
Computing Atmospheric mass density...

Documentation

Showing up to 5 results
|